Simultaneous Nadir Overpasses (SNOs) Predictions

Prediction of SNOs between GOES-15 and METOP-A Satellite Orbit:

Table of predicted SNOs for the next 14.0 days since TLE Epoch: 1/7/2022
Index Date Time (GOES-15) GOES-15 Lat,Lon METOP-A Lat,Lon Distance(km) Time Diff (sec)
1 01/08/2022 04:47:55 0.08,-128.27 -0.69,-131.70 391.05 80
2 01/10/2022 04:14:20 0.09,-128.30 1.02,-124.13 475.28 80
3 01/10/2022 16:29:58 -0.08,-128.32 -0.16,-127.89 48.94 80
4 01/11/2022 04:49:55 0.07,-128.32 -0.76,-132.05 425.13 80
5 01/13/2022 04:16:19 0.08,-128.34 0.93,-124.47 440.75 80
6 01/13/2022 16:31:49 -0.07,-128.36 -0.14,-128.20 18.54 80
7 01/14/2022 04:51:53 0.07,-128.35 -0.84,-132.39 460.06 80
8 01/16/2022 04:18:16 0.07,-128.36 0.84,-124.80 405.30 80
9 01/16/2022 16:36:18 -0.06,-128.38 -0.02,-128.50 14.12 80
10 01/17/2022 04:53:51 0.06,-128.37 -0.92,-132.72 495.87 80
11 01/19/2022 04:20:13 0.06,-128.38 0.76,-125.13 369.22 80
12 01/19/2022 16:38:09 -0.05,-128.39 0.06,-128.80 47.67 80
